Sturgis, MI

5:38 PM EST on February 26, 2017 (GMT -0500)
Kirsch Municipal

Weather History for KIRS - December, 2011

Change the Weather History Date:

Saturday, December 10, 2011

  Actual Average (KHAI) Record (KHAI)
Temperature  
Mean Temperature 16 °F -  
Max Temperature 23 °F 36 °F 65 °F (1971)
Min Temperature 10 °F 23 °F -6 °F (1958)
Degree Days  
Heating Degree Days 48    
Moisture  
Dew Point 8 °F    
Average Humidity 69    
Maximum Humidity 92    
Minimum Humidity 46    
Precipitation  
Precipitation 0.00 in - - ()
Sea Level Pressure  
Sea Level Pressure 30.42 in    
Wind  
Wind Speed 3 mph (SW)    
Max Wind Speed 14 mph    
Max Gust Speed 10 mph    
Visibility 10 miles    
Events      
Averages and records for this station are not official NWS values.
T = Trace of Precipitation, MM = Missing Value Source: NWS Daily Summary

Daily Weather History Graph

Daily Weather History Graph

Search for Another Location

Airport or City:

Trip Planner

Search our weather history database for the weather conditions in past years. The results will help you decide how hot, cold, wet, or windy it might be!

Date:

Astronomy

Dec. 10, 2011 Rise Set
Actual Time 7:58 AM EST 5:10 PM EST
Civil Twilight 7:26 AM EST 5:42 PM EST
Nautical Twilight 6:51 AM EST 6:17 PM EST
Astronomical Twilight 6:17 AM EST 6:51 PM EST
Moon 5:23 PM EST (12/10) 7:57 AM EST (12/10)
Length of Visible Light 10h 15m
Length of Day
9h 12m
Full, 100% of the Moon is Illuminated
Dec 10
Full
Dec 17
Last Quarter
Dec 24
New
Jan 1
First Quarter
Jan 9
Full

Hourly Weather History & Observations

Time (EST) Temp. Windchill Dew Point Humidity Pressure Visibility Wind Dir Wind Speed Gust Speed Precip Events Conditions
12:14 AM 17.6 °F - 10.4 °F 73% 30.35 in 10.0 mi Calm Calm - N/A   Scattered Clouds
12:35 AM 17.6 °F - 10.4 °F 73% 30.35 in 10.0 mi Calm Calm - N/A   Scattered Clouds
12:54 AM 17.6 °F - 10.4 °F 73% 30.35 in 10.0 mi Calm Calm - N/A   Scattered Clouds
1:14 AM 19.4 °F 9.5 °F 12.2 °F 74% 30.36 in 10.0 mi WSW 8.1 mph - N/A   Scattered Clouds
1:35 AM 17.6 °F 7.3 °F 10.4 °F 73% 30.35 in 10.0 mi WSW 8.1 mph - N/A   Scattered Clouds
1:54 AM 17.6 °F 8.2 °F 10.4 °F 73% 30.36 in 10.0 mi West 6.9 mph - N/A   Clear
2:15 AM 17.6 °F - 10.4 °F 73% 30.36 in 10.0 mi Calm Calm - N/A   Scattered Clouds
2:35 AM 17.6 °F 9.3 °F 10.4 °F 73% 30.37 in 10.0 mi WSW 5.8 mph - N/A   Clear
2:54 AM 17.6 °F - 10.4 °F 73% 30.37 in 10.0 mi Calm Calm - N/A   Clear
3:15 AM 15.8 °F - 8.6 °F 73% 30.38 in 10.0 mi Calm Calm - N/A   Clear
3:34 AM 15.8 °F - 8.6 °F 73% 30.38 in 10.0 mi Calm Calm - N/A   Clear
3:54 AM 14.0 °F - 8.6 °F 79% 30.38 in 10.0 mi Calm Calm - N/A   Clear
4:15 AM 12.2 °F - 8.6 °F 85% 30.38 in 10.0 mi Calm Calm - N/A   Clear
4:34 AM 12.2 °F - 8.6 °F 85% 30.38 in 10.0 mi Calm Calm - N/A   Clear
4:55 AM 14.0 °F - 8.6 °F 79% 30.38 in 10.0 mi Calm Calm - N/A   Clear
5:15 AM 14.0 °F - 8.6 °F 79% 30.38 in 10.0 mi Calm Calm - N/A   Clear
5:34 AM 14.0 °F - 8.6 °F 79% 30.39 in 10.0 mi Calm Calm - N/A   Clear
5:55 AM 12.2 °F - 8.6 °F 85% 30.40 in 10.0 mi Calm Calm - N/A   Clear
6:14 AM 14.0 °F - 8.6 °F 79% 30.40 in 10.0 mi Calm Calm - N/A   Clear
6:34 AM 12.2 °F - 8.6 °F 85% 30.40 in 10.0 mi Calm Calm - N/A   Clear
6:55 AM 12.2 °F - 8.6 °F 85% 30.40 in 10.0 mi Calm Calm - N/A   Clear
7:15 AM 12.2 °F - 8.6 °F 85% 30.42 in 10.0 mi Calm Calm - N/A   Clear
7:34 AM 12.2 °F - 8.6 °F 85% 30.42 in 10.0 mi Calm Calm - N/A   Clear
7:54 AM 10.4 °F - 8.6 °F 92% 30.42 in 10.0 mi Calm Calm - N/A   Clear
8:14 AM 10.4 °F - 8.6 °F 92% 30.43 in 10.0 mi Calm Calm - N/A   Clear
8:35 AM 10.4 °F - 8.6 °F 92% 30.44 in 10.0 mi Calm Calm - N/A   Clear
8:54 AM 12.2 °F - 8.6 °F 85% 30.45 in 10.0 mi Calm Calm - N/A   Clear
9:15 AM 12.2 °F - 8.6 °F 85% 30.45 in 10.0 mi Calm Calm - N/A   Clear
9:34 AM 15.8 °F - 10.4 °F 79% 30.46 in 10.0 mi Calm Calm - N/A   Clear
9:53 AM 15.8 °F - 10.4 °F 79% 30.46 in 10.0 mi Calm Calm - N/A   Clear
10:14 AM 17.6 °F - 10.4 °F 73% 30.47 in 10.0 mi Calm Calm - N/A   Clear
10:35 AM 19.4 °F - 10.4 °F 68% 30.47 in 10.0 mi Calm Calm - N/A   Clear
10:55 AM 19.4 °F - 12.2 °F 74% 30.48 in 10.0 mi Calm Calm - N/A   Clear
11:14 AM 21.2 °F 10.9 °F 12.2 °F 68% 30.48 in 10.0 mi WSW 9.2 mph - N/A   Clear
11:35 AM 21.2 °F 10.1 °F 12.2 °F 68% 30.48 in 10.0 mi SW 10.4 mph - N/A   Clear
11:54 AM 21.2 °F 8.3 °F 10.4 °F 63% 30.48 in 10.0 mi SW 13.8 mph - N/A   Clear
12:15 PM 23.0 °F 11.7 °F 10.4 °F 59% 30.47 in 10.0 mi SW 11.5 mph - N/A   Clear
12:34 PM 23.0 °F 12.4 °F 8.6 °F 54% 30.47 in 10.0 mi SW 10.4 mph - N/A   Clear
12:55 PM 23.0 °F 12.4 °F 8.6 °F 54% 30.46 in 10.0 mi SW 10.4 mph - N/A   Clear
1:15 PM 23.0 °F 13.9 °F 6.8 °F 50% 30.46 in 10.0 mi SW 8.1 mph - N/A   Clear
1:35 PM 23.0 °F 12.4 °F 6.8 °F 50% 30.46 in 10.0 mi SW 10.4 mph - N/A   Clear
1:55 PM 23.0 °F 12.4 °F 8.6 °F 54% 30.45 in 10.0 mi SW 10.4 mph - N/A   Clear
2:14 PM 23.0 °F 12.4 °F 6.8 °F 50% 30.44 in 10.0 mi SW 10.4 mph - N/A   Clear
2:35 PM 23.0 °F 13.1 °F 6.8 °F 50% 30.44 in 10.0 mi SW 9.2 mph - N/A   Clear
2:54 PM 23.0 °F 11.7 °F 8.6 °F 54% 30.44 in 10.0 mi SW 11.5 mph - N/A   Clear
3:15 PM 23.0 °F 13.1 °F 6.8 °F 50% 30.44 in 10.0 mi WSW 9.2 mph - N/A   Clear
3:34 PM 21.2 °F 9.5 °F 6.8 °F 54% 30.43 in 10.0 mi SW 11.5 mph - N/A   Clear
3:55 PM 21.2 °F 10.1 °F 5.0 °F 50% 30.43 in 10.0 mi SW 10.4 mph - N/A   Clear
4:15 PM 21.2 °F 12.6 °F 3.2 °F 46% 30.43 in 10.0 mi WSW 6.9 mph 10.4 mph N/A   Clear
4:34 PM 21.2 °F - 6.8 °F 54% 30.44 in 10.0 mi Calm Calm - N/A   Clear
4:55 PM 19.4 °F - 5.0 °F 54% 30.44 in 10.0 mi Calm Calm - N/A   Clear
5:14 PM 19.4 °F - 3.2 °F 49% 30.44 in 10.0 mi Calm Calm - N/A   Clear
5:35 PM 19.4 °F - 3.2 °F 49% 30.45 in 10.0 mi Calm Calm - N/A   Clear
5:55 PM 17.6 °F - 3.2 °F 53% 30.45 in 10.0 mi Calm Calm - N/A   Clear
6:14 PM 15.8 °F - 5.0 °F 62% 30.46 in 10.0 mi Calm Calm - N/A   Clear
6:35 PM 15.8 °F - 5.0 °F 62% 30.45 in 10.0 mi Calm Calm - N/A   Clear
6:55 PM 15.8 °F - 6.8 °F 68% 30.45 in 10.0 mi Calm Calm - N/A   Clear
7:14 PM 15.8 °F - 6.8 °F 68% 30.45 in 10.0 mi Calm Calm - N/A   Clear
7:35 PM 15.8 °F - 6.8 °F 68% 30.46 in 10.0 mi Calm Calm - N/A   Clear
7:54 PM 14.0 °F 3.9 °F 6.8 °F 73% 30.45 in 10.0 mi SSW 6.9 mph - N/A   Clear
8:15 PM 15.8 °F - 6.8 °F 68% 30.45 in 10.0 mi Calm Calm - N/A   Clear
8:35 PM 15.8 °F - 6.8 °F 68% 30.45 in 10.0 mi Calm Calm - N/A   Clear
8:54 PM 15.8 °F - 6.8 °F 68% 30.45 in 10.0 mi Calm Calm - N/A   Clear
9:15 PM 15.8 °F - 8.6 °F 73% 30.45 in 10.0 mi Calm Calm - N/A   Clear
9:34 PM 15.8 °F - 8.6 °F 73% 30.45 in 10.0 mi Calm Calm - N/A   Clear
9:55 PM 15.8 °F - 8.6 °F 73% 30.45 in 10.0 mi Calm Calm - N/A   Clear
10:15 PM 15.8 °F - 8.6 °F 73% 30.45 in 10.0 mi Calm Calm - N/A   Clear
10:34 PM 15.8 °F 10.2 °F 8.6 °F 73% 30.45 in 10.0 mi SSW 3.5 mph - N/A   Clear
10:55 PM 15.8 °F - 8.6 °F 73% 30.45 in 10.0 mi Calm Calm - N/A   Clear
11:14 PM 15.8 °F - 8.6 °F 73% 30.45 in 10.0 mi Calm Calm - N/A   Clear
11:34 PM 15.8 °F - 8.6 °F 73% 30.45 in 10.0 mi Calm Calm - N/A   Clear
11:54 PM 15.8 °F - 8.6 °F 73% 30.45 in 10.0 mi Calm Calm - N/A   Clear